Location: Kergonan
(48.2337°N, 4.5518°W)
Time: 17:19:59
(UTC+00:00)

Cosmos 1953 - Pass Details

Date: 18 January 2020
Orbit: 539 x 558 km, 82.5° (Epoch: 25 February)

Event Time Altitude Azimuth Distance (km) Brightness Sun altitude
Rises 05:17:55 0° 161° (SSE) 2,719 6.1 -26.8°
Reaches altitude 10° 05:20:16 10° 150° (SSE) 1,834 5.3 -26.5°
Maximum altitude 05:23:46 29° 90° (E) 1,050 4.4 -25.9°
Drops below altitude 10° 05:27:17 10° 30° (NNE) 1,855 5.3 -25.3°
Sets 05:29:40 0° 19° (NNE) 2,757 6.1 -24.9°
